Regional Weather Roundup
Issued by NWS Wakefield, VA

Home | Current Version | Previous Version | Text Only | Print | Product List | Glossary Off
Versions: 1 2 3 4 5 6 7 8 9 10 11 12 13 14 15 16 17 18 19 20 21 22 23 24 25 26 27

000
ASUS41 KAKQ 212015
RWRAKQ

REGIONAL WEATHER ROUNDUP
NATIONAL WEATHER SERVICE WAKEFIELD VA
400 PM EDT FRI JUL 21 2017

Note: "fair" indicates few or no clouds below 12,000 feet with no
significant weather and/or obstructions to visibility. * = Denotes
station may not report precipitation (e.g., rain,snow,etc.),
thunder or fog.

VAZ042-051-052>054-056-212100-
NORTHERN VIRGINIA

CITY           SKY/WX    TMP DP  RH WIND       PRES   REMARKS
WASH NATIONAL  PTSUNNY   95  71  45 NW8       29.91F HX 102
DULLES         CLOUDY    91  71  51 SW6       29.92F HX  97
FORT BELVOIR   CLOUDY    94  70  44 NW9       29.90F HX 100
QUANTICO       MOSUNNY   93  75  55 S6        29.92F HX 104
FREDERICKSBRG* MOSUNNY   96  71  43 S6        29.90F HX 104
STAFFORD*      MOSUNNY   94  69  43 CALM      29.96F HX  99
WARRENTON      MOSUNNY   96  65  36 S3        29.92F HX  98
CULPEPER*      MOSUNNY   96  71  45 NW5       29.92F HX 104
MANASSAS*      CLOUDY    93  74  53 NW5       29.92F HX 103
LEESBURG*      MOSUNNY   91  75  59 SW5       29.93F HX 102
WINCHESTER     CLOUDY    86  73  66 SE8       29.94S
FRONT ROYAL*   MOCLDY    90  72  55 CALM      29.93R HX  96
LURAY*         MOCLDY    77  70  78 W10G31    29.99R
$$

VAZ048-049-060>072-079>083-212100-
CENTRAL AND SOUTH CENTRAL VIRGINIA

CITY           SKY/WX    TMP DP  RH WIND       PRES   REMARKS
RICHMOND       CLOUDY    97  68  38 VRB7      29.92F HX 102
CHESTERFIELD*  FAIR      95  72  47 SE6       29.93F HX 103
PETERSBURG*    MOSUNNY   94  68  42 CALM      29.93F HX  99
HANOVER        MOSUNNY   96  66  37 SW7       29.93F HX  99
TAPPAHANNOCK*  MOSUNNY   97  49  19 CALM      29.92F
QUINTON*       FAIR      95  71  44 SW3       29.91F HX 102
CHARLOTTSVILLE RAIN      85  68  56 NW18G32   29.98R
GORDONSVILLE*  CLEAR     96  69  40 NW3       29.92F HX 102
ORANGE*        MOSUNNY   97  68  38 W7        29.93S HX 101
LOUISA*        MOSUNNY   95  64  36 S3        29.93F HX  97
BUMPASS*       FAIR      96  68  40 SW8       29.92F HX 100
FARMVILLE*     SUNNY     96  59  29 SW9       29.93F HX  96
CREWE*         FAIR      96  58  28 S5        29.93F HX  95
FORT PICKETT*  FAIR     N/A N/A N/A SW5       29.94F
CHASE CITY*    FAIR      95  67  40 CALM      29.95F HX  99
CLARKSVILLE*   FAIR      95  70  43 W3        29.94F HX 101
SOUTH HILL*    SUNNY     93  73  50 CALM      30.00F HX 101
LAWRENCEVILLE* FAIR      95  67  40 MISG      29.94F HX  99
EMPORIA*       CLOUDY    93  72  49 SW7       29.94F HX 100
$$

VAZ088>098-212100-
SOUTHEAST VIRGINIA

CITY           SKY/WX    TMP DP  RH WIND       PRES   REMARKS
NORFOLK        CLOUDY    90  74  59 NE7       29.92F HX  99
VIRGINIA BEACH TSTM      83  75  77 E14       29.90F
NORFOLK NAVAL  CLOUDY    92  72  51 NE6       29.94F HX  99
WEST POINT*    CLOUDY    96  66  37 SE5       29.93F HX  99
SALUDA*        FAIR      90  79  70 E6        29.93S HX 105
NEWPORT NEWS   CLOUDY    94  71  47 SW9       29.92F HX 101
LANGLEY AFB    MOSUNNY   92  74  55 N5        29.92F HX 102
FORT EUSTIS    CLOUDY    96  76  52 S5        29.91S HX 110
WILLIAMSBURG*    N/A     99  73  44 CALM      29.93F HX 109
HR EXEC AP*    FAIR      91  79  66 SW8         N/A  HX 107
FRANKLIN*      CLOUDY    93  75  55 SW6       29.93F HX 104
US460-WAKEFLD  MOSUNNY   93  77  59 VRB3      29.93F HX 107
$$

VAZ020-022-025-037-045-212100-
WEST CENTRAL AND SOUTHWEST VIRGINIA

CITY           SKY/WX    TMP DP  RH WIND       PRES   REMARKS
STAUNTON*      CLOUDY    75  69  81 CALM      30.05F
WAYNESBORO*    CLOUDY    74  73  96 CALM      30.05S
HOT SPRINGS VA CLOUDY    72  64  78 CALM      30.17F
LYNCHBURG      MOSUNNY   94  70  45 CALM      29.98F HX 100
DANVILLE       CLOUDY    92  74  55 CALM      29.97F HX 101
SOUTH BOSTON*  FAIR      94  72  47 W5        29.96S HX 102
MARTINSVILLE   CLOUDY    77  70  77 W3        30.04S
ROANOKE        CLOUDY    94  67  41 N10G23    30.02S HX  97
BLACKSBURG     CLOUDY    85  67  55 NW8       30.11F
DUBLIN*        MOSUNNY   90  60  36 NW9       30.09F
MARION*        PTSUNNY   79  70  74 W7        30.15F
HILLSVILLE*    MOSUNNY   86  61  42 W10       30.11F
RICHLANDS*     MOCLDY    85  67  55 S5        30.12F
WISE*          SUNNY     88  59  37 NW3       30.15F
ABINGDON*      CLOUDY    85  71  60 SW8       30.10F
$$

MDZ021>025-VAZ099-100-212100-
SOUTHERN MARYLAND AND THE DELMARVA PENINSULA

CITY           SKY/WX    TMP DP  RH WIND       PRES   REMARKS
PATUXENT RIVER PTSUNNY   90  74  59 E7        29.91F HX  99
BAY BRIDGE APT MOSUNNY   95  68  41 SE5       29.91F HX  99
LEONARDTOWN    CLOUDY   N/A N/A N/A SW6       29.94S
DOVER          SUNNY     90  81  75 NE5       29.89F HX 108
GEORGETOWN     CLOUDY    92  75  57 E3        29.91F HX 103
EASTON         MOSUNNY   95  70  43 CALM      29.95S HX 101
CAMBRIDGE      MOSUNNY   91  73  55 CALM      29.91F HX 100
SALISBURY      NOT AVBL
OCEAN CITY     MOSUNNY   85  76  74 S7        29.92F
WALLOPS ISLAND CLOUDY    93  73  52 W7        29.92F HX 102
ACCOMACK*      CLOUDY    92  70  47 W5        29.93F HX  97
$$

NCZ012>017-030>032-212100-
NORTH CENTRAL AND EASTERN NORTH CAROLINA

CITY           SKY/WX    TMP DP  RH WIND       PRES   REMARKS
ROANOKE RAPIDS FAIR      93  72  49 W5        29.95F HX 100
RALEIGH        PTSUNNY   96  65  35 NW7       29.97F HX  98
ELIZABETH CITY PTSUNNY   92  79  65 SW8       29.93F HX 108
AHOSKIE*         N/A     91  77  65 CALM      29.94F HX 104
EDENTON*       PTSUNNY   94  78  58 CALM      29.94F HX 110
CURRITUCK*     PTSUNNY   92  74  55 S6        29.94F HX 102
KILL DEVIL HLS PTSUNNY   90  77  65 S6        29.94F HX 103
MANTEO         PTSUNNY   87  79  77 S15       29.95F HX 101
CAPE HATTERAS  SUNNY     86  77  74 SW12      29.98F HX  97
TARBORO*       NOT AVBL
GOLDSBORO      MOSUNNY   96  74  48 SW9       29.94F HX 106
WASHINGTON     MOSUNNY   94  73  50 S7        29.94F HX 103
GREENVILLE     MOSUNNY   97  72  44 SW9       29.96F HX 105
NEW BERN       MOSUNNY   93  73  52 SW8       29.97F HX 102
WILMINGTON     MOSUNNY   92  74  55 S10       29.98F HX 101
$$

VAZ048-212100-
ELSEWHERE

CITY           SKY/WX    TMP DP  RH WIND       PRES   REMARKS
HARRISBURG PA  PTSUNNY   90  71  53 VRB5      29.91F HX  96
BALTIMORE      PTSUNNY   93  71  48 S7        29.90F HX 100
ANNAPOLIS      MOSUNNY   88  73  61 SE12      29.91F HX  95
ANDREWS AFB    MOSUNNY   94  70  45 W3        29.91F HX  99
PHILADELPHIA   CLOUDY    93  67  42 SW12      29.90F HX  96
HENDERSON NC   MOSUNNY   92  69  47 W5        29.97S HX  97
GREENSBORO     CLOUDY    92  68  45 W6        29.99F HX  96
ROCKY MOUNT    PTSUNNY   95  72  47 W9        29.95F HX 103
$$

VAZ100-212100-
MARINE

STATION/POSITION TIME  TEMP    WIND        PRES    WAVE   SWELL
                       AIR SEA DIR/SP/G            HT/PER HT/PER
                 (UTC) (F)     (DEG/KT/KT) (MB)    (FT/S) (FT/S)
BRANDYWINE LGT   1942   82     150/  6/  6 1013.5F
CAPE MAY NJ      1948   85 77  160/  4/  5 1012.6F
LEWES DE         1948   86 77  100/  5/  7 1012.7F
15NM E FENWICK I 1950   81 80  140/  2/  2 1013.5F   2/ 7   2/ 7
OCEAN-CITY-INLET 1948   80 77  200/  4/  6 1013.6F
WACHAPREAGUE VA  1948   92 89  330/  5/ 10 1013.6S
THOMAS POINT MD  2000   87 83  160/  5/  5   N/A
GOOSES REEF MD   2000   89 89  130/  2/  4 1013.9    0
COVE POINT MD    1948   88      40/  2/  3 1013.7F
SOLOMONS ISLAND  1942   88 84   70/  6/  7   N/A
BISHOPS HEAD MD  1948   88     240/  5/  6 1013.3F
PINEY POINT MD   1948           10/  3/  3   N/A
POTOMAC MD       2000   89 87   CALM  /  2 1012.1    1
CAMBRIDGE MD     1948   94 89              1014.0F
LEWISETTA VA     1948   89 85   60/  3/  4 1013.0F
RAPPAHANNOCK LGT 1948           90/  2/  3 1014.4F
STINGRAY PT      2000   87 87  140/  6/  8 1014.2    0
YORK RVR RNG VA  1948   87     130/  7/  7 1013.8F
YORKTOWN VA      1948   87 85   70/  8/ 10 1012.9F
JAMESTOWN VA     2000      89     CALM       N/A     0
DOMINION TERM VA 1948   87     150/  2/  3 1013.5F
KIPTOPEKE VA     1942      82  250/  2/  3   N/A
CHES BAY BRIDGE  1948   83 83   60/  6/  8 1013.4F
CAPE HENRY VA    1948   83      40/  6/  6   N/A
WILLOUBY STN VA  1948   86      90/  5/  6 1013.5F
S CRANEY ISL VA  1948   88      40/  5/  5 1013.3F
CAPE HENRY BUOY  2000      80                N/A     2/11   2/11
1ST LANDING BUOY 2000   85 84              1013.1    1/ 4
64NM E OF VA BCH 1950   81 81  210/ 14/ 17 1014.2F   2/ 8   2/ 8
DUCK PIER NC     1948   84 60  180/  8/ 10 1013.4F
44056 DUCK FRF   2000      70                N/A     2/11   2/11
OREGON INLET NC  1936   85 86  190/ 18/ 20 1014.4F
HATTERAS NC      1936   84 80  220/ 10/ 15 1015.2F
DIAMOND SHLS NC  1950   83 85  220/ 16/ 17 1015.2F   4/ 4   2/ 8
CAPE LOOKOUT NC  2000   84     220/ 13/ 17 1015.2F
$$




USA.gov is the U.S. government's official web portal to all federal, state and local government web resources and services.